Regional Weather Roundup
Issued by NWS

Home | Current Version | Previous Version | Graphics & Text | Print | Product List | Glossary Off
Versions: 1 2 3 4 5 6 7 8 9 10 11 12 13 14 15 16 17 18 19 20 21 22 23 24 25 26 27 28 29 30 31 32 33 34 35 36 37 38 39 40 41 42 43 44 45 46 47 48 49 50

000
ASUS43 KMPX 311310
RWRMN
WEATHER ROUNDUP FOR MINNESOTA
NATIONAL WEATHER SERVICE TWIN CITIES/CHANHASSEN MN
800 AM CDT MON AUG 31 2015


NOTE: "FAIR" INDICATES FEW OR NO CLOUDS BELOW 12,000 FEET WITH NO
SIGNIFICANT WEATHER AND/OR OBSTRUCTIONS TO VISIBILITY. N/A MEANS
CURRENT SKY AND/OR WEATHER CONDITIONS ARE NOT AVAILABLE.

MNZ060>063-068>070-311400-
   Twin Cities Metro

CITY           SKY/WX    TMP DP  RH WIND       PRES   REMARKS
TWIN CITIES    PTSUNNY   68  66  93 SE7       29.93F
ST PAUL        CLOUDY    67  66  97 SE8       29.94S FOG
CRYSTAL        CLOUDY    68  65  90 S9        29.91S FOG
BLAINE         CLOUDY    70  70 100 S10       29.92S FOG
LAKEVILLE      PTSUNNY   66  66 100 S6        29.95R FOG
EDEN PRAIRIE   PTSUNNY   69  66  90 S10       29.92S FOG
SOUTH ST PAUL  CLOUDY    69  66  92 S7        29.94S FOG
LAKE ELMO      CLOUDY    68  66  94 S7        29.96S FOG
$$
MNZ001>005-007-008-013>017-022>024-027-028-311400-
   Northwest Minnesota

CITY           SKY/WX    TMP DP  RH WIND       PRES   REMARKS
BEMIDJI        SUNNY     66  58  74 S12G17    29.75R
HALLOCK        CLOUDY    66  63  88 SW7       29.67R
ROSEAU         PTSUNNY   66  61  82 S9        29.67R
WARROAD        MOSUNNY   64  61  88 S7        29.67S
THIEF RVR FALL MOSUNNY  N/A N/A N/A S12G17    29.67F
CROOKSTON      MOSUNNY   66  61  82 S13       29.69R
FOSSTON        MOSUNNY   66  57  72 S10       29.72S
DETROIT LAKES  SUNNY     70  55  60 S12G18    29.76R
MOORHEAD       SUNNY     66  61  82 S14       29.71R
PARK RAPIDS    SUNNY     66  59  78 S15       29.79R
MAHNOMEN       FAIR      68  58  71 S12       29.72R
$$
MNZ006-009>011-018-025>026-311400-
   North Central Minnesota

CITY           SKY/WX    TMP DP  RH WIND       PRES   REMARKS
BAUDETTE       MOSUNNY   65  59  81 SE8       29.70S
FLAG ISLAND    CLOUDY    68  63  83 S12       29.66F
INTL FALLS     MOSUNNY   66  61  84 VRB6      29.74S
WASKISH        MOSUNNY   66  61  82 S8        29.73S
BIG FORK       SUNNY     66  61  82 S12G17    29.79F
LONGVILLE      MOSUNNY   64  61  88 S9        29.82S
GRAND RAPIDS     N/A     63  59  88 S12       29.84R
CRANE LAKE     SUNNY     63  61  94 S8        29.81R
ORR            SUNNY     63  57  82 S9        29.78S
COOK           SUNNY     64  61  88 S7        29.83S
WALKER         FAIR      66  58  77 S13       29.78S
$$
MNZ012-019>021-037-311400-
   Northeast Minnesota

CITY           SKY/WX    TMP DP  RH WIND       PRES   REMARKS
DULUTH         PTSUNNY   64  61  90 SW13      29.89S
ELY            SUNNY     64  57  77 SW8       29.85S
HIBBING        MOSUNNY   61  60  97 SE5       29.86S
EVELETH        SUNNY     57  57 100 CALM      29.88S FOG
DULUTH HARBOR  SUNNY     64  63  94 SW3       29.89S
TWO HARBORS    CLOUDY    68  63  83 SW6       29.88S HAZE
SILVER BAY     CLOUDY    66  63  88 S7        29.88S
GRAND MARAIS     N/A     54  54 100 SW5       29.89S
G MARAIS ARPRT FOG       61  57  88 S9        29.93R VSB 1/4
$$
MNZ029>031-032-039>041-046>048-054>057-064-311400-
   West Central Minnesota

CITY           SKY/WX    TMP DP  RH WIND       PRES   REMARKS
FERGUS FALLS   SUNNY     66  59  77 S14       29.74R
WHEATON        SUNNY     64  59  82 SE13G20   29.75R
MORRIS         SUNNY     64  63  94 SE14      29.79S FOG
ALEXANDRIA     SUNNY     66  62  87 S18G25    29.84S
ELBOW LAKE     FAIR      66  61  83 S20G29    29.76F
WADENA         SUNNY     63  61  94 S9        29.79S
GLENWOOD       SUNNY     64  63  94 S9        29.85S FOG
APPLETON       SUNNY     66  63  88 S9        29.81R
BENSON         SUNNY     64  61  88 S9        29.83R FOG
ORTONVILLE     SUNNY     63  61  94 SE7       29.78S
MADISON        SUNNY     66  63  88 S9        29.81R
WILLMAR        FAIR      66  64  94 S8        29.87F FOG
$$
MNZ033>034-036-042>043-049>051-058-059-311400-
   Central Minnesota

CITY           SKY/WX    TMP DP  RH WIND       PRES   REMARKS
ST CLOUD       SUNNY     65  64  97 S9        29.88S FOG
SAUK CENTRE    PTSUNNY   64  63  96 S9        29.85S FOG
PAYNESVILLE    SUNNY     65  64  95 SE10G16   29.87F FOG
AITKIN         SUNNY     66  61  82 S8        29.84F HAZE
PINE RIVER     SUNNY     63  63 100 SE8       29.86S FOG
BRAINERD       MOSUNNY   65  63  93 S10       29.85S FOG
STAPLES        SUNNY     64  61  88 S10       29.82S FOG
LONG PRAIRIE   FAIR      63  63 100 S13       29.85R FOG
LITTLE FALLS     N/A     63  61  94 SE8       29.87R FOG
LITCHFIELD     SUNNY     66  66 100 S6        29.89S FOG
BUFFALO        CLOUDY    66  63  91 S6        29.92R FOG
MAPLE LAKE     CLOUDY    65  64  97 S3        29.91R FOG
$$
MNZ037-044-045-052-053-311400-
   East Central Minnesota

CITY           SKY/WX    TMP DP  RH WIND       PRES   REMARKS
PRINCETON      MOSUNNY   68  64  88 S7        29.90S
MORA           CLOUDY    64  63  94 S9        29.92S
CAMBRIDGE      CLOUDY    68  59  73 S7        29.90S HAZE
RUSH CITY      CLOUDY    65  64  95 S7        29.92S
MOOSE LAKE     CLOUDY    64  63  94 S8G16     29.88S
HINCKLEY       CLOUDY    66  64  94 S10       29.91S
CLOQUET        CLOUDY    64  61  88 S9        29.89S
MCGREGOR       SUNNY     63  63 100 S6        29.88R
$$
MNZ071>073-080-081-089-090-097-098-311400-
   Southwest Minnesota

CITY           SKY/WX    TMP DP  RH WIND       PRES   REMARKS
MONTEVIDEO     SUNNY     66  66 100 SW9       29.85S FOG
GRANITE FALLS  SUNNY     65  64  97 S8        29.86S FOG
CANBY          SUNNY     69  63  81 S15G22    29.82S
MARSHALL       SUNNY     68  61  77 SW23G30   29.85R
REDWOOD FALLS  SUNNY     66  64  93 S12       29.88S FOG
OLIVIA         SUNNY     61  59  94 S10       29.87F FOG
PIPESTONE      SUNNY     66  64  94 S10G18    29.90S FOG
WINDOM         SUNNY     68  64  88 S14       29.93S
WORTHINGTON    MOSUNNY   64  61  88 S10       29.94R
JACKSON        SUNNY     66  64  94 S9        29.95S FOG
TRACY          SUNNY     68  66  92 S18G24    29.87F FOG
SLAYTON        MOSUNNY   66  66 100 S12G18    29.92F FOG
$$
MNZ065>067-074>077-082>085-091>093-311400-
   South Central Minnesota

CITY           SKY/WX    TMP DP  RH WIND       PRES   REMARKS
MANKATO        CLOUDY    66  63  88 S12G17    29.94S
NEW ULM        SUNNY     64  64 100 S10       29.91S FOG
ST JAMES       SUNNY     66  66 100 S10       29.93S FOG
FAIRMONT       CLOUDY    66  61  82 S10       29.95S VSB 1
GLENCOE        CLOUDY    66  66 100 S6        29.91S FOG
FARIBAULT      CLOUDY    66  64  94 S6        29.96S FOG
OWATONNA       CLOUDY    68  64  88 S13       29.97R FOG
WASECA         CLOUDY    64  63  94 S9        29.97S FOG
ALBERT LEA     FOG       66  66 100 S7        29.98S VSB 1/4
$$
MNZ078>079-086>088-094>096-311400-
   Southeast Minnesota

CITY           SKY/WX    TMP DP  RH WIND       PRES   REMARKS
ROCHESTER      FOG       66  66 100 S12       30.01S VSB 1/2
RED WING       CLOUDY    68  66  94 S5        29.96S FOG
STANTON        PTSUNNY   68  65  90 S7        29.95S FOG
DODGE CENTER   FOG       66  64  94 S14       29.98F VSB 3/4
WINONA         CLOUDY    68  66  94 CALM      30.00S FOG
PRESTON        FOG       64  63  96 S8        30.02S VSB 1/4
$$
ABBREVIATIONS USED IN REMARKS
   TC - TEMPERATURES IN CELSIUS
  WCI - WIND CHILL INDEX
   HX - HEAT INDEX
  VSB - VISIBILITY
$$



USA.gov is the U.S. government's official web portal to all federal, state and local government web resources and services.